Regional Weather Roundup
Issued by NWS

Home | Current Version | Previous Version | Graphics & Text | Print | Product List | Glossary On
Versions: 1 2 3 4 5 6 7 8 9 10 11 12 13 14 15 16 17 18 19 20 21 22 23 24 25 26 27 28 29 30 31 32 33 34 35 36 37 38 39 40 41 42 43 44 45 46 47 48 49 50
000
ASUS43 KIND 211359
RWRIN

WEATHER ROUNDUP FOR INDIANA
NATIONAL WEATHER SERVICE INDIANAPOLIS IN
900 AM EST SUN DEC 21 2014

NOTE: "FAIR" INDICATES FEW OR NO CLOUDS BELOW 12,000 FEET WITH NO
SIGNIFICANT WEATHER AND/OR OBSTRUCTIONS TO VISIBILITY.

* - STATION DOES NOT REPORT WEATHER SUCH AS PRECIPITATION OR FOG.

+ - STATION NOT QUALITY CONTROLLED BY THE NATIONAL WEATHER SERVICE.
    USE DATA WITH CAUTION...ESPECIALLY DEWPOINT AND RELATIVE
    HUMIDITY OBSERVATIONS.

INZ001>003-010>013-019-020-211500-
NORTHWEST INDIANA

CITY           SKY/WX    TMP DP  RH WIND       PRES   REMARKS
GARY /AIRPORT/ CLOUDY    34  25  69 SE8       30.25R WCI  27
VALPARAISO     NOT AVBL

$$

LMZ046-743>745-211500-
SOUTHERN LAKE MICHIGAN

STATION/POSITION TIME  TEMP WIND        PRES
                       AIR  DIR/SP/G
                 (UTC) (F)  (DEG/KT/KT) (MB)

$$

INZ004-005-014>016-021>024-211500-
NORTH CENTRAL INDIANA

CITY           SKY/WX    TMP DP  RH WIND       PRES   REMARKS
GOSHEN         CLOUDY    31  26  82 S8        30.26S HAZE    WCI  23
SOUTH BEND     CLOUDY    32  26  78 S7        30.26S HAZE    WCI  26

$$

INZ006>009-017-018-025>027-211500-
NORTHEAST INDIANA

CITY           SKY/WX    TMP DP  RH WIND       PRES   REMARKS
ANGOLA *+      CLOUDY    28  27  93 S6        30.26S WCI  22
FORT WAYNE     CLOUDY    30  26  85 S7        30.30S FOG     WCI  23

$$

INZ028-029-035-036-043>045-051>053-211500-
WEST CENTRAL INDIANA

CITY           SKY/WX    TMP DP  RH WIND       PRES   REMARKS
GREENCASTLE +  CLEAR     23  19  86 CALM      30.28F FOG
LAFAYETTE      CLOUDY    27  24  89 S6        30.27F WCI  20
TERRE HAUTE    CLOUDY    28  24  85 S8        30.29S WCI  20

$$

INZ030>032-037>040-046>048-054>057-064-065-211500-
CENTRAL INDIANA

CITY           SKY/WX    TMP DP  RH WIND       PRES   REMARKS
COLUMBUS       CLEAR     23  23 100 CALM      30.30F FOG
INDIANAPOLIS   MOCLDY    23  22  96 SE5       30.28F FOG     WCI  17
-EAGLE CREEK   CLEAR     21  20  96 CALM      30.28F FOG
KOKOMO *+      CLOUDY    28  25  86 S6        30.28S WCI  22
MT COMFORT *+  CLEAR     23  23 100 SE3       30.29F
SHELBYVILLE    CLEAR     25  22  88 E5        30.29S FOG     WCI  19

$$

INZ033-034-041-042-049-050-058-059-211500-
EAST CENTRAL INDIANA

CITY           SKY/WX    TMP DP  RH WIND       PRES   REMARKS
MUNCIE         CLOUDY    26  22  84 S3        30.29S FOG

$$

INZ060-061-067>069-081>083-085>088-211500-
SOUTHWEST INDIANA

CITY           SKY/WX    TMP DP  RH WIND       PRES   REMARKS
EVANSVILLE     CLEAR     27  24  89 E3        30.29F FOG
HUNTINGBURG *+ CLEAR     23  19  86 SE5       30.29F WCI  17

$$

INZ062-063-066-070>080-084-089>092-211500-
SOUTH CENTRAL AND SOUTHEAST INDIANA

CITY           SKY/WX    TMP DP  RH WIND       PRES   REMARKS
BLOOMINGTON    CLEAR     22  20  92 CALM      30.28F FOG

$$



USA.gov is the U.S. government's official web portal to all federal, state and local government web resources and services.